Location: Gleizolles
(44.4833°N, 6.7667°E)
Time: 21:05:32
(UTC+00:00)

A-11 Canister half - Pass Details

Date: 30 June 2024
Orbit: 1524 x 1684 km, 47.3° (Epoch: 18 July)

Event Time Altitude Azimuth Distance (km) Brightness Sun altitude
Rises 16:59:05 0° 294° (WNW) 4,688 12.9 22.5°
Reaches altitude 10° 17:02:24 10° 286° (WNW) 3,695 13.2 21.9°
Maximum altitude 17:10:37 37° 224° (SW) 2,203 10.5 20.5°
Drops below altitude 10° 17:18:52 10° 161° (SSE) 3,705 10.8 19.0°
Sets 17:22:13 0° 153° (SSE) 4,701 11.2 18.5°
